Regional Weather Roundup
Issued by NWS Portland, ME

Current Version | Previous Version | Text Only | Print | Product List | Glossary Off
Versions: 1 2 3 4 5 6 7 8 9 10 11 12 13 14 15 16 17 18 19 20 21 22 23 24 25 26 27 28 29 30 31 32 33 34 35 36 37 38 39 40 41 42 43 44 45 46 47 48 49 50
000 ASUS41 KGYX 200205 RWRGYX WEATHER ROUNDUP FOR MAINE AND NEW HAMPSHIRE NATIONAL WEATHER SERVICE GRAY ME 1000 PM EDT THU OCT 19 2017 MEZ002-005-006-010-012-015-018-020-021-024-026-027-029-200300- MAINE CITY SKY/WX TMP DP RH WIND PRES REMARKS PORTLAND CLOUDY 61 43 51 SW9 29.93R SANFORD PTCLDY 60 43 53 SW9 29.95S BAR HARBOR CLOUDY 58 53 84 SW14 29.90F WISCASSET PTCLDY 62 48 60 SW8 29.92F ROCKLAND CLOUDY 59 54 83 SW15G24 29.90F FRYEBURG PTCLDY 58 43 57 SE6 29.91R LEWISTONAUBURN CLEAR 61 43 51 SE8 29.91R AUGUSTA CLEAR 58 46 64 SW7 29.90R WATERVILLE CLEAR 54 48 80 CALM 29.86S BANGOR CLOUDY 60 49 66 SW8 29.87F GREENVILLE N/A 54 47 77 CALM 29.83S MILLINOCKET CLOUDY 58 49 72 CALM 29.83S HOULTON CLOUDY 57 50 77 VRB5 29.79F PRESQUE ISLE CLOUDY 58 48 69 VRB7 29.77S FRENCHVILLE CLOUDY 59 40 49 W13G22 29.74R CARIBOU MOCLDY 59 47 64 SW10 29.75R $$ NHZ002-005-008-009-011-012-014-200300- NEW HAMPSHIRE CITY SKY/WX TMP DP RH WIND PRES REMARKS PORTSMOUTH MOCLDY 61 43 51 SW10 29.95R ROCHESTER PTCLDY 59 41 51 CALM 29.95R NASHUA PTCLDY 60 45 57 CALM 29.99R MANCHESTER MOCLDY 61 43 51 S8 29.96S CONCORD PTCLDY 60 44 55 S5 29.96S LACONIA MOCLDY 61 40 45 SW8 29.94R PLYMOUTH FAIR 50 43 77 CALM 29.93S BERLIN CLOUDY 64 39 39 VRB6 29.90S WHITEFIELD MOCLDY 63 40 42 SW5 29.92S JAFFREY CLOUDY 57 46 66 VRB3 30.01S KEENE CLOUDY 52 42 69 SW5 29.99F LEBANON MOCLDY 60 42 51 VRB5 29.94R MT WASHINGTON MOCLDY 39 34 81 W76 N/A $$ VTZ005-007-008-200300- VERMONT CITY SKY/WX TMP DP RH WIND PRES REMARKS ST JOHNSBURY N/A 62 42 47 MISG 29.91R MONTPELIER CLOUDY 64 42 44 W9 29.97S BURLINGTON PTCLDY 66 45 46 W10G20 29.94R $$ MAZ007-012-024-CTZ003-RIZ002-NYZ038-NYZ072-200300- SOUTHERN NEW ENGLAND AND NY CITY SKY/WX TMP DP RH WIND PRES REMARKS BOSTON CLEAR 60 50 69 SW18 30.01R WORCESTER CLEAR 55 45 68 SW16 30.03R NANTUCKET CLEAR 60 59 96 SW18 30.07F PROVIDENCE CLEAR 57 54 89 SW7 30.06R HARTFORD CLOUDY 60 50 69 S8 30.04R ALBANY CLOUDY 57 45 64 S3 30.01R NEW YORK CITY PTCLDY 66 46 48 SW9 30.09R $$ ANZ081-ANZ082-ANZ150-NHZ014-MEZ023>029-200300- COASTAL MARINE OBSERVATIONS STATION/POSITION TIME TEMP WIND PRES WAVE AIR SEA DIR/SP/G HT/PER (UTC) (F) (DEG/KT/KT) (MB) (FT/S) MOUNT DESERT ROC 0100 58 190/ 30/ 33 1012.9F MATINICUS ROCK 0100 58 220/ 31/ 33 1012.8R ISLE OF SHOALS 0100 62 220/ 23/ 24 1013.9R JEFFREYS LEDGE 0136 58 N/A 5/ 6 CASHES LEDGE BUO 0050 58 56 1013.6 6/ 6 GEORGES BANK BUO 0050 61 59 1020.3 3/ 8 $$ .............KEY.............. WCI - WIND CHILL TC - TEMPERATURE IN CELSIUS VSB - VISIBILITY IN MILES HX - HEAT INDEX FAIR- INDICATES FEW OR NO CLOUDS BELOW 12,000 FT, WITH NO SIGNIFICANT WEATHER AND/OR OBSTRUCTIONS TO VISIBILITY.

USA.gov is the U.S. government's official web portal to all federal, state and local government web resources and services.